Location: Newark
(44.1667°N, 8.2500°E)
Time: 06:01:41
(UTC+00:00)

Explorer 11/Cluster Stage 4 - All Passes

Search period start: 10 December 2019 00:00
Search period end: 20 December 2019 00:00
Orbit: 467 x 1259 km, 28.8° (Epoch: 09 December)

Date Brightness Start Highest point End Pass type
(mag) Time Alt. Az. Time Alt. Az. Time Alt. Az.
10 Dec - 09:02:14 10° S 09:02:43 10° SSE 09:03:12 10° SSE daylight
10 Dec - 10:47:19 10° SSW 10:50:29 15° S 10:53:21 10° SE daylight
10 Dec - 12:36:10 10° SW 12:38:02 12° SSW 12:39:48 10° S daylight
11 Dec - 08:49:18 10° S 08:51:52 12° SSE 08:54:17 10° SE daylight
11 Dec - 10:35:59 10° SW 10:39:42 16° S 10:43:01 10° SE daylight
11 Dec - 12:25:09 10° SW 12:27:16 12° SSW 12:29:14 10° S daylight
12 Dec - 08:37:25 10° SSW 08:41:00 14° SSE 08:44:18 10° SE daylight
12 Dec - 10:24:42 10° SW 10:28:53 18° S 10:32:34 10° SE daylight
12 Dec - 12:14:10 10° SW 12:16:28 13° SSW 12:18:35 10° S daylight
13 Dec - 08:25:48 10° SSW 08:30:07 16° SSE 08:34:03 10° SE daylight
13 Dec - 10:13:30 10° SW 10:18:02 19° S 10:22:03 10° SE daylight
13 Dec - 12:03:14 10° SW 12:05:38 13° SSW 12:07:52 10° S daylight
14 Dec - 08:14:19 10° SSW 08:19:12 18° S 08:23:40 10° SE daylight
14 Dec - 10:02:18 10° SW 10:07:11 20° S 10:11:29 10° SE daylight
14 Dec - 11:52:19 10° SW 11:54:47 13° SSW 11:57:05 10° S daylight
15 Dec - 06:17:39 10° S 06:20:15 12° SSE 06:22:47 10° SE visible
15 Dec - 08:02:54 10° SW 08:08:17 20° S 08:13:10 10° SE daylight
15 Dec - 09:51:09 10° SW 09:56:17 21° S 10:00:50 10° SE daylight
15 Dec - 11:41:27 10° SW 11:43:54 12° SSW 11:46:12 10° S daylight
16 Dec - 06:05:34 10° S 06:09:15 14° SSE 06:12:50 10° SE visible
16 Dec - 07:51:35 10° SW 07:57:20 22° S 08:02:35 10° SE daylight
16 Dec - 09:40:01 10° SW 09:45:23 21° S 09:50:09 10° SE daylight
16 Dec - 11:30:40 10° SW 11:33:00 12° SSW 11:35:13 10° S daylight
17 Dec - 05:53:51 10° SSW 05:58:14 15° SSE 06:02:32 10° SE visible
17 Dec - 07:40:20 10° SW 07:46:22 23° S 07:51:55 10° SE daylight
17 Dec - 09:28:56 10° SW 09:34:28 22° S 09:39:24 10° SE daylight
17 Dec - 11:19:58 10° SW 11:22:05 12° SSW 11:24:06 10° S daylight
18 Dec - 05:42:19 10° SSW 05:47:14 17° SSE 05:52:02 10° SE visible
18 Dec - 07:29:09 10° SW 07:35:23 24° S 07:41:12 10° SE daylight
18 Dec - 09:17:53 10° WSW 09:23:30 22° SSW 09:28:35 10° SE daylight
18 Dec - 11:09:26 10° SW 11:11:08 11° SSW 11:12:46 10° SSW daylight
19 Dec - 05:30:56 10° SSW 05:36:12 19° SSE 05:41:26 10° ESE visible
19 Dec - 07:18:00 10° SW 07:24:23 25° S 07:30:25 10° SE daylight
19 Dec - 09:06:51 10° WSW 09:12:31 21° SSW 09:17:43 10° SSE daylight
19 Dec - 10:59:23 10° SW 11:00:09 10° SSW 11:00:56 10° SSW daylight
